Погода в Заветном

Россия / Ростовская область     47°07′10″N   43°53′28″E
темп.,
°C
ветер,
м/с
пор.,
м/с
влажн.,
%
обл.,
%
осадки,
мм/ч
давл.,
гПа
погр.,
м
18 апреля, вс
вс1800:00+9зюз349048 0.1 102289
03:00+8з229028 0.1 102127
06:00+8ююв008839 0.0 102012
09:00+12юв2371100 0.0 1019470
12:00+14ю2265100 0.0 1019757
15:00+13ю3271100 0.0 1018322
18:00+12ююз3479100 0.0 1018167
21:00+10ююз3592100 0.4 1018231
19 апреля, пн
пн1900:00+10ю229494 0.5 101748
03:00+10ююв1197100 1.9 101634
06:00+11ююв2395100 2.1 1016113
09:00+12ююв2491100 2.5 1016243
12:00+16зюз3576100 0.1 1015824
15:00+15з4579100 0.1 1014646
18:00+13зсз1390100 0.8 1014227
21:00+12ююз2397100 1.2 101585
20 апреля, вт
вт2000:00+12ююз2397100 0.2 1014163
03:00+12ююв3796100 0.2 1013287
06:00+12вюв6996100 1.7 1012287
09:00+13юв61389100 1.9 1012498
12:00+17юв111562100 0.0 1009837
15:00+17вюв91461100 0.3 1008543
18:00+17юв81363100 0.0 1008674
21:00+14ююв61382100 1.3 1011463
21 апреля, ср
ср2100:00+14ююз4696100 2.4 1012202
03:00+13зюз5890100 3.3 1013444
06:00+10зюз4785100 0.3 1016550
09:00+12з566995 0.5 1018956
12:00+14з356086 0.1 10181255
15:00+16з3451100 0.1 10181704
18:00+15зсз3563100 0.0 1019247
21:00+13сз227099 0.0 102146
22 апреля, чт
чт2200:00+12з2273100 0.0 102123
03:00+10сз228262 0.0 102213
06:00+10ссв227993 0.0 102343
09:00+14св2259100 0.0 1023596
12:00+16ссв1151100 0.0 10231334
15:00+17сз214595 0.0 10221810
18:00+16с236198 0.1 102268
21:00+13с227193 0.7 102325